Theta_e
316 316 316 319 318 318 317 321 320 319 318 321 319 318 317 318 317 324 327 329 331 332 331 331 333 334 335 335 335 336 336 336 337 337 336 335 335 335 335 335 335 335 334 333
317 317 316 316 317 317 316 317 319 317 316 320 321 322 320 320 319 319 322 325 326 326 325 325 327 328 328 329 331 333 333 334 334 335 336 335 335 335 335 335 335 335 334 334
311 311 315 315 316 316 317 317 314 316 316 315 316 319 320 320 319 319 319 319 320 321 322 322 320 319 317 317 320 325 329 331 331 332 333 333 333 333 332 333 333 333 333 333
311 310 312 314 315 316 318 315 316 315 315 314 312 317 317 317 315 315 317 318 318 318 317 317 317 317 314 314 314 314 314 316 321 325 329 331 332 332 332 332 332 332 332 331
309 311 314 313 313 315 317 314 314 315 316 314 313 311 313 309 311 311 310 310 310 310 310 312 314 313 315 312 313 313 313 313 312 313 315 321 326 327 327 328 329 329 330 331
311 311 311 309 311 313 314 314 314 316 316 319 315 313 314 314 309 308 307 309 310 309 308 307 308 309 311 311 312 313 313 312 310 312 313 314 315 316 316 317 319 320 323 326
309 311 311 311 313 313 315 314 321 322 321 320 310 313 314 313 311 310 309 308 308 310 309 310 310 310 310 310 310 311 311 310 311 311 311 311 312 313 314 315 315 317 319 321
313 311 312 312 312 313 313 314 319 324 321 317 309 314 314 311 309 306 307 307 307 310 310 311 311 311 310 309 309 309 309 309 309 310 311 311 312 313 313 313 314 316 319 319
314 311 311 311 311 313 314 313 314 317 314 318 315 313 312 312 308 308 308 308 309 310 310 311 311 310 309 309 308 308 307 307 306 306 308 309 311 311 311 312 313 313 313 315
313 315 312 312 312 312 313 312 315 315 320 318 315 314 314 311 308 309 309 309 309 309 309 310 310 309 308 307 306 305 305 305 304 304 304 304 305 307 309 311 312 312 313 313
313 314 314 313 313 312 313 314 313 315 315 316 315 312 309 308 308 309 310 308 309 309 309 310 310 309 308 306 305 305 304 304 304 303 303 303 303 303 304 307 308 309 310 309
307 314 315 313 312 311 311 312 313 314 317 314 313 313 310 308 308 309 309 308 308 309 310 310 310 309 307 306 305 305 304 304 304 303 303 303 303 302 302 302 303 304 304 305
310 312 317 315 313 312 312 311 311 314 313 315 315 313 308 308 309 310 310 309 309 309 310 310 309 308 307 306 305 305 304 304 303 303 303 302 302 302 301 301 301 301 301 301
308 310 311 314 311 312 315 313 312 313 316 313 314 312 311 310 310 310 310 309 309 309 309 310 309 308 307 307 306 305 304 304 303 303 303 302 302 301 301 300 300 300 300 300
307 310 309 309 308 309 309 309 313 316 314 316 313 314 312 311 311 311 309 309 307 308 308 308 308 308 307 307 306 305 305 303 303 302 302 302 302 301 301 300 300 300 299 299
305 308 305 306 304 305 307 306 306 307 308 311 311 312 310 309 309 308 308 309 309 308 308 308 307 307 306 306 305 304 303 302 302 302 302 302 301 301 301 300 299 299 298 298
306 305 305 305 303 305 306 305 304 305 305 307 307 306 306 307 307 308 307 308 309 309 308 308 307 307 306 305 304 304 303 302 302 302 302 301 301 300 300 299 299 298 298 297
304 304 306 304 303 303 304 301 304 307 307 306 306 306 307 304 305 306 306 307 308 308 308 308 307 306 307 306 305 303 302 302 302 301 301 300 300 299 299 298 298 297 297 296
303 304 304 304 304 303 300 299 301 303 302 302 301 302 303 305 305 305 305 304 304 304 305 306 306 307 306 306 305 302 301 301 301 300 299 298 298 298 298 297 297 296 296 295
299 303 304 303 303 301 300 301 302 303 303 302 303 304 303 303 302 303 304 304 303 302 302 302 302 304 304 304 304 302 300 300 299 298 297 296 297 297 297 296 296 295 294 294
300 301 304 305 304 303 301 301 302 301 301 301 302 302 302 302 302 303 303 303 301 300 301 300 299 301 301 301 301 300 299 298 297 296 295 295 295 296 296 295 295 294 293 292
301 302 302 302 304 303 302 301 300 300 302 301 301 301 301 301 302 302 302 302 300 299 298 297 296 297 297 296 297 298 297 296 295 295 295 295 295 295 295 294 293 292 291 290
300 300 302 303 302 301 301 302 301 302 302 302 302 303 301 301 301 301 302 301 299 297 295 295 294 294 295 295 295 296 295 294 294 294 293 294 294 293 293 292 291 290 289 287
298 298 299 301 300 301 301 301 300 300 301 301 302 302 300 300 300 300 298 297 296 295 294 294 294 293 293 294 293 293 292 293 293 292 292 292 291 290 290 290 289 289 287 286
300 298 300 300 299 300 300 300 300 300 300 300 299 299 299 300 299 298 298 296 296 295 294 293 293 293 292 292 292 292 292 292 292 292 291 290 289 289 288 287 286 286 287 286
299 299 300 301 300 301 300 301 301 300 300 300 299 299 297 297 298 298 297 297 296 294 294 295 294 293 293 292 292 292 292 292 291 290 289 288 287 287 286 285 284 283 284 284
Wind_Speed
8 4 4 6 8 9 11 4 7 5 6 3 12 14 14 8 6 9 10 11 10 10 10 14 15 15 15 15 16 16 17 17 17 18 16 16 17 16 18 18 17 17 17 16
4 7 8 1 5 9 9 4 1 2 4 2 4 13 13 13 10 10 11 11 11 9 9 10 12 13 13 14 15 16 16 16 17 17 16 15 12 15 16 14 16 16 17 17
5 2 13 8 2 5 8 7 6 4 2 1 5 10 14 12 13 12 10 10 8 8 9 9 10 12 10 9 8 10 12 13 13 14 13 11 11 10 9 10 13 13 14 16
8 3 8 8 4 3 3 9 8 5 5 2 2 4 3 8 7 9 11 11 11 9 7 6 7 11 11 9 7 6 7 8 12 12 11 13 13 13 12 12 10 10 10 12
3 4 9 10 6 15 6 7 7 5 4 5 6 4 3 3 3 7 2 3 5 5 6 8 9 8 8 8 7 7 6 6 6 6 7 8 11 11 9 9 9 9 10 10
4 2 1 1 3 11 7 7 2 6 3 5 10 5 7 2 4 5 4 5 4 4 4 3 2 3 6 5 6 6 6 5 5 4 4 5 5 6 7 7 7 8 7 7
3 3 1 2 6 5 8 8 1 3 3 5 2 4 11 10 6 4 7 6 6 2 1 0 2 5 6 6 5 5 6 4 3 3 2 2 3 4 6 6 6 5 6 5
5 5 5 4 2 3 9 8 3 2 3 1 2 6 2 2 3 5 6 7 6 2 1 1 2 3 5 6 6 6 6 6 5 4 3 2 1 1 1 2 3 3 3 3
1 2 2 1 2 2 4 6 6 3 1 3 5 6 6 6 4 2 3 5 5 2 2 2 1 1 3 4 5 5 6 5 5 5 4 3 2 2 2 3 2 2 1 2
4 2 1 3 1 2 3 9 4 3 3 4 6 5 8 3 6 8 10 8 4 2 2 1 2 2 2 3 4 4 4 5 4 4 3 2 2 2 2 2 3 2 2 1
4 2 3 3 7 6 3 3 2 5 3 3 3 3 6 8 6 8 10 7 5 3 2 2 2 3 4 3 3 4 5 5 4 4 3 2 1 2 2 2 1 1 2 2
2 3 2 3 3 3 5 8 10 4 5 5 3 5 8 6 5 7 12 8 5 4 4 3 4 5 5 4 5 6 6 6 5 4 3 2 2 2 2 2 1 2 1 1
1 1 3 1 2 3 5 7 4 2 1 6 3 4 3 6 2 7 10 7 6 4 3 3 4 5 6 8 8 8 7 6 6 5 4 3 2 1 1 1 1 2 2 2
3 2 3 4 4 3 2 5 7 11 5 7 15 14 14 16 15 15 13 12 6 5 5 5 5 7 10 9 9 9 8 7 7 6 5 4 4 3 3 2 2 2 2 2
4 2 3 5 4 3 4 5 5 6 12 7 10 16 14 16 16 16 15 12 9 9 7 7 6 6 10 10 10 10 9 9 9 8 7 6 5 5 4 3 3 2 2 2
2 1 1 1 3 4 8 11 11 11 13 14 17 23 14 14 7 12 12 13 12 11 7 7 8 9 9 10 11 12 13 12 10 8 7 7 6 6 5 5 4 4 3 3
2 2 1 0 5 5 5 10 12 11 11 14 15 19 12 14 12 12 12 11 13 12 8 6 9 11 13 18 19 18 17 13 10 9 8 7 6 6 6 6 5 5 4 3
5 2 1 2 2 5 2 7 8 9 13 12 14 18 13 11 11 13 10 11 12 12 11 9 10 15 17 18 16 13 15 13 11 10 8 7 6 6 5 4 4 5 5 4
11 6 2 3 6 7 9 9 5 5 11 14 17 16 10 4 6 6 6 7 9 11 13 15 16 16 17 17 19 15 15 14 12 11 10 8 6 5 4 4 5 5 5 5
7 11 5 4 5 4 8 6 3 1 8 12 6 4 3 4 7 8 14 12 12 17 15 14 17 15 17 19 20 19 18 16 15 13 11 7 5 3 3 3 5 5 6 5
5 4 12 10 7 5 15 9 1 3 5 5 4 5 7 6 7 12 9 10 14 14 16 17 15 14 13 16 21 21 18 15 13 12 9 7 4 3 2 2 4 4 5 6
8 8 6 7 5 10 10 4 7 8 2 3 6 10 7 9 10 10 12 10 10 13 12 16 13 10 7 8 13 15 17 16 14 11 9 7 5 3 3 3 4 5 7 8
6 9 4 8 6 6 6 7 10 8 7 10 8 7 8 9 11 12 11 9 10 13 12 10 11 7 2 3 5 11 13 14 14 11 9 7 5 4 4 6 6 8 8 7
6 9 4 5 11 17 12 11 12 11 12 13 11 11 8 12 9 8 8 6 5 9 7 6 7 7 5 6 5 5 7 10 10 9 7 6 6 5 5 5 6 6 7 6
6 7 6 9 18 13 14 15 13 14 11 8 9 8 10 8 8 9 8 6 6 7 3 4 5 5 8 7 5 5 6 7 8 7 7 7 6 7 6 5 4 5 6 6
8 12 9 10 16 11 14 13 7 9 11 11 9 7 8 9 10 7 7 8 8 9 6 2 3 8 11 11 9 8 9 10 9 8 7 8 8 7 7 7 6 4 2 4
Wind_Direction
129 138 207 195 292 307 320 271 221 33 41 283 230 245 244 180 227 235 223 210 204 198 194 192 199 200 204 211 212 216 216 217 215 214 219 224 227 233 236 236 238 238 236 235
157 240 189 109 280 287 292 340 151 109 32 287 263 260 248 246 239 243 236 223 218 200 187 191 199 205 211 217 220 221 221 220 218 220 222 222 232 238 240 240 239 239 237 236
265 324 151 143 257 266 278 303 36 26 16 202 301 268 243 234 241 239 240 256 256 232 212 191 191 198 200 206 209 215 218 219 219 220 222 225 237 243 244 241 242 243 239 236
241 188 190 170 176 240 273 347 323 306 327 276 327 276 210 219 231 227 239 240 244 232 225 248 203 206 192 180 173 177 189 196 210 212 225 230 238 246 249 248 250 247 243 242
131 190 170 166 218 165 219 335 13 348 294 305 227 257 253 127 245 244 246 322 318 327 312 251 231 221 192 174 177 171 168 178 195 190 207 228 240 255 268 268 264 263 257 250
73 12 208 88 164 207 151 156 338 331 311 262 239 238 260 245 24 17 27 30 12 341 316 277 325 194 176 174 175 168 168 172 201 195 219 228 247 261 271 273 270 268 258 249
162 140 157 216 136 145 225 135 73 200 200 254 78 228 260 322 352 334 305 314 333 8 12 67 173 176 167 169 159 157 163 153 162 168 191 230 252 269 272 273 270 272 264 248
202 182 180 153 268 202 203 157 161 246 221 256 135 236 147 356 332 312 291 291 309 293 117 142 135 144 148 145 145 145 147 143 140 138 133 122 104 77 355 316 271 263 267 221
241 180 156 59 329 297 165 199 112 77 85 285 235 250 260 264 99 84 0 340 310 237 185 154 114 130 140 143 142 147 143 137 131 126 117 113 97 76 57 35 58 76 196 181
7 269 74 93 91 65 266 137 97 95 249 238 248 267 256 176 45 23 6 346 327 275 272 186 163 168 175 161 155 152 150 149 145 134 128 108 79 64 42 55 64 87 88 126
341 307 114 173 202 196 149 185 177 154 234 288 298 264 73 65 32 356 352 346 335 304 271 244 199 181 202 189 178 176 170 166 158 150 143 130 102 72 67 60 63 76 90 112
1 333 231 199 44 343 310 226 194 212 201 236 336 266 83 85 68 26 7 4 355 321 294 248 204 189 191 202 204 202 187 177 175 172 160 143 122 88 70 54 41 73 67 98
84 73 183 216 288 210 231 211 203 118 250 212 239 247 78 91 25 356 348 353 328 323 293 249 221 210 211 209 207 213 207 195 193 193 188 176 175 144 146 139 100 93 90 77
288 347 69 27 29 19 322 265 246 225 244 253 233 271 292 314 326 324 333 334 318 295 257 229 223 223 220 215 215 214 210 204 207 208 209 209 214 205 198 178 167 150 137 141
351 18 351 310 303 246 256 247 259 270 244 258 287 297 297 302 300 319 319 311 285 275 257 223 218 229 228 220 222 219 210 211 210 209 212 213 216 213 206 202 205 204 188 187
32 69 1 277 357 323 285 277 261 245 240 254 262 267 276 279 317 309 313 307 301 299 289 232 230 219 228 229 227 225 215 216 212 208 203 206 209 208 209 211 209 211 207 206
22 121 359 285 351 309 260 246 244 250 242 245 257 275 334 339 319 298 305 300 296 307 306 266 241 244 228 232 233 226 220 216 211 206 199 201 207 210 207 210 211 212 208 212
143 153 262 308 318 245 311 276 262 279 280 278 282 289 302 315 309 304 304 303 310 312 307 287 263 258 251 253 244 232 219 212 206 201 198 199 200 202 200 207 214 217 217 217
224 197 215 242 231 309 298 272 201 229 285 292 278 288 324 13 299 311 58 6 333 322 311 303 290 278 259 252 243 222 207 205 202 197 192 191 187 185 184 206 215 222 222 221
248 233 211 192 248 250 259 79 78 124 283 275 276 307 350 335 314 303 358 340 314 307 301 304 306 287 258 239 231 217 205 199 195 189 181 173 170 174 178 207 214 216 210 208
148 207 225 231 241 248 262 282 308 248 253 5 307 306 312 306 304 306 317 313 311 306 301 296 297 284 270 250 229 202 196 189 184 178 170 159 160 148 167 200 204 194 189 180
177 182 199 220 243 253 239 215 220 242 289 276 280 289 287 302 299 294 297 305 312 315 326 318 305 292 283 258 215 190 176 171 172 173 165 164 158 161 185 188 181 178 175 165
236 212 218 210 218 247 198 239 223 262 279 282 275 282 283 296 286 295 294 305 311 310 317 329 323 296 152 159 206 182 170 169 167 170 169 163 162 169 174 176 171 166 170 165
227 239 236 234 241 250 250 248 255 254 256 265 265 277 276 282 283 280 280 281 297 310 315 335 348 329 301 150 178 171 192 177 175 171 168 167 175 175 170 169 167 173 178 166
225 165 215 254 260 272 267 253 260 265 264 260 255 242 248 254 259 250 261 248 260 272 248 326 316 308 306 294 233 199 204 204 196 192 192 196 200 185 172 163 167 175 192 190
206 228 225 247 257 259 267 264 249 236 247 249 246 247 232 225 248 242 243 249 236 234 237 217 281 328 309 280 260 243 226 223 220 220 221 218 204 187 172 156 122 88 152 196